Lexington Weather

Lexington, Massachusetts, USA

32°F
1/23/2020 10:14am 
  • Lexington Conditions: Clear
  • Temperature: 31.6°F / -0.2°CWarmer 4.6°F than last hour.
  • Dew Point: 20.8°FIncreased 1.6°Fsince last hour.
  • Relative Humidity: 64%Decreased 8.0% since last hour.
  • Wind: Calm, 10-min avg: Calm, gust: None
  • Barometer: 30.34 in Steady
  • Visibility: 10 miles
  • Snow Today: 0.0 in
  •   

Regional Weather Roundup
for Boston / Norton, MA

        
000
ASUS41 KBOX 222200
RWRBOX

REGIONAL WEATHER ROUNDUP
NATIONAL WEATHER SERVICE BOSTON/NORTON MA
500 PM EST WED JAN 22 2020

NOTE:  "FAIR" INDICATES FEW OR NO CLOUDS BELOW 12,000 FEET WITH NO 
SIGNIFICANT WEATHER AND/OR OBSTRUCTIONS TO VISIBILITY.

MAZALL-222300-
EASTERN MASSACHUSETTS
  
CITY           SKY/WX    TMP DP  RH WIND       PRES   REMARKS
BOSTON         FAIR      35  16  45 SW8       30.40R WCI  29          
BEVERLY        FAIR      33  15  47 SW3       30.39R                  
LAWRENCE       FAIR      31  16  54 CALM      30.40R                  
BEDFORD        FAIR      30  15  53 S3        30.38S                  
BLUE HILL        N/A     31  14  49 SW5       30.36R WCI  26          
NORWOOD        FAIR      37  15  40 CALM      30.40R                  
MARSHFIELD     NOT AVBL                                               
PLYMOUTH       FAIR      32  18  56 CALM      30.40S                  
TAUNTON        FAIR      28  16  60 CALM      30.40R                  
NEW BEDFORD    FAIR      31  15  52 W3        30.40S                  
$$

MAZALL-222300-
CAPE COD AND THE ISLANDS
  
CITY           SKY/WX    TMP DP  RH WIND       PRES   REMARKS
FALMOUTH       CLEAR     30  14  51 W6        30.40S WCI  24          
HYANNIS        NOT AVBL                                               
CHATHAM        FAIR      30  17  58 CALM      30.42S                  
PROVINCETOWN   FAIR      29  17  61 CALM      30.42R                  
NANTUCKET      FAIR      31  19  61 W3        30.42S                  
MARTHAS VNYRD  FAIR      31  16  54 SW3       30.42R                  
$$
 
MAZALL-222300-
CENTRAL AND WESTERN MASSACHUSETTS
  
CITY           SKY/WX    TMP DP  RH WIND       PRES   REMARKS
WORCESTER      FAIR      29  14  53 W7        30.35S WCI  22          
FITCHBURG      FAIR      31  15  52 CALM      30.38S                  
ORANGE         FAIR      29  15  56 S3        30.38S                  
SPRINGFIELD    NOT AVBL                                               
WESTFIELD      CLEAR     30  16  55 CALM      30.39S                  
NORTH ADAMS    FAIR      24  16  71 CALM      30.38R                  
PITTSFIELD     FAIR      30  15  53 SW5       30.34S WCI  25          
$$
 
RIZALL-222300-
RHODE ISLAND
  
CITY           SKY/WX    TMP DP  RH WIND       PRES   REMARKS
PROVIDENCE     FAIR      32  19  58 CALM      30.41R                  
NEWPORT        FAIR      32  21  64 S3        30.40R                  
BLOCK ISLAND   FAIR      31  22  69 SW5       30.43R WCI  26          
SMITHFIELD     FAIR      31  16  54 CALM      30.39R                  
WESTERLY       FAIR      35  22  58 W3        30.41S                  
$$
 
CTZALL-222300-
CONNECTICUT
  
CITY           SKY/WX    TMP DP  RH WIND       PRES   REMARKS
BRADLEY INTL   FAIR      33  17  51 CALM      30.40R                  
HARTFORD       FAIR      34  18  52 CALM      30.41R                  
BRIDGEPORT     FAIR      34  21  59 W5        30.42S WCI  30          
DANBURY        FAIR      31  17  56 CALM      30.41R                  
GROTON         NOT AVBL                                               
NEW HAVEN      FAIR      36  22  56 W6        30.42R WCI  31          
CHESTER        NOT AVBL                                               
MERIDEN        FAIR      31  18  58 CALM      30.41R                  
WILLIMANTIC    FAIR      33  18  53 CALM      30.42R                  
OXFORD         FAIR      33  16  49 CALM      30.39R                  
$$

MEZ002-015-021-024-NHZ003-005-008-011-012-014-VTZ005-008-222300-
NORTHERN NEW ENGLAND
  
CITY           SKY/WX    TMP DP  RH WIND       PRES   REMARKS
PORTLAND ME    FAIR      30  15  53 S3        30.37S                  
BANGOR ME      FAIR      29  18  63 S5        30.35R WCI  24          
CONCORD NH     FAIR      30  15  53 CALM      30.36R                  
MANCHESTER NH  FAIR      34  16  47 CALM      30.36R                  
NASHUA NH      FAIR      27  20  75 CALM      30.38S                  
PORTSMOUTH NH  MOCLDY    32  13  46 SW5       30.36S WCI  27          
JAFFREY NH     FAIR      26  16  65 SW3       30.34R                  
KEENE NH       FAIR      27  19  72 CALM      30.38R                  
BURLINGTON VT  MOCLDY    32  20  61 S14G21    30.32R WCI  22          
MT. WASHINGTON PTCLDY    18  -9  29 NW46        N/A  WCI  -5          
$$

NYZ052-076-222300-
EASTERN NEW YORK
  
CITY           SKY/WX    TMP DP  RH WIND       PRES   REMARKS
ALBANY         MOCLDY    33  18  53 S6        30.41S WCI  28          
NEW YORK CITY  FAIR      37  16  42 NW3       30.42S                  
$$
 
ANZALL-222300-
MARINE OBSERVATIONS
  
STATION/POSITION TIME  TEMP    WIND        PRES    VSBY  WAVE
                       AIR SEA DIR/SP/G                  HT/PER
                 (UTC) (F)     (DEG/KT/KT) (MB)    (MI)  (FT/S)
BOSTON BUOY      2050   35 42  260/  8/ 10 1028.9          1/10
BUZZARDS BAY     2100   33     230/  4/  6 1030.3R
NANTUCKET SOUND  NOT AVBL
MASS BAY-STELLWA 2104   34 42  250/  8/ 10 1027.5S  1 7/8  2/11
ISLE OF SHOALS   2100   34     230/ 10/ 12 1028.3F
S OF BLOCK IS    2130      45                N/A           2/ 8
$$

......................KEY.........................
  SKY/WX - SKY CONDITION/PRESENT WEATHER
  TMP    - TEMPERATURE IN FAHRENHEIT
  DWPT   - DEWPOINT IN FAHRENHEIT
  RH     - RELATIVE HUMIDITY IN PERCENT
  WIND   - DIRECTION AND SPEED IN MPH
  PRES   - MEAN SEA LEVEL PRESSURE IN INCHES OF HG
  WCI    - WIND CHILL INDEX
  VSB    - VISIBILITY IN MILES
  HX     - HEAT INDEX
  TC     - TEMPERATURE IN CELSIUS
  VRB    - VARIABLE WIND DIRECTION
  N/A    - NOT AVAILABLE
  
      

Other recent Regional Weather Roundups

Thu Jan 23, 10:10am

Thu Jan 23, 10:00am

Thu Jan 23, 9:10am

Thu Jan 23, 9:00am

Thu Jan 23, 8:10am

Thu Jan 23, 8:00am

Thu Jan 23, 7:10am

Thu Jan 23, 7:01am

Thu Jan 23, 6:10am

Thu Jan 23, 6:00am

Thu Jan 23, 5:10am

Thu Jan 23, 5:00am

Thu Jan 23, 4:10am

Thu Jan 23, 4:01am

Thu Jan 23, 3:10am

Thu Jan 23, 3:00am

Thu Jan 23, 2:10am

Thu Jan 23, 2:00am

Thu Jan 23, 1:10am

Thu Jan 23, 1:00am

Thu Jan 23, 12:10am

Thu Jan 23, 12:00am

Wed Jan 22, 11:10pm

Wed Jan 22, 11:01pm

Wed Jan 22, 10:10pm

Wed Jan 22, 10:00pm

Wed Jan 22, 9:10pm

Wed Jan 22, 9:00pm

Wed Jan 22, 8:10pm

Wed Jan 22, 8:01pm

Wed Jan 22, 7:10pm

Wed Jan 22, 7:00pm

Wed Jan 22, 6:10pm

Wed Jan 22, 6:01pm

Wed Jan 22, 5:10pm

Wed Jan 22, 4:10pm

Wed Jan 22, 4:00pm

Wed Jan 22, 3:10pm

Wed Jan 22, 3:00pm

Wed Jan 22, 2:10pm

Wed Jan 22, 2:00pm

Wed Jan 22, 1:10pm

Wed Jan 22, 1:00pm

Wed Jan 22, 12:10pm

Wed Jan 22, 12:00pm

Wed Jan 22, 11:10am

Wed Jan 22, 11:00am

Wed Jan 22, 10:10am

Wed Jan 22, 10:01am

Wed Jan 22, 9:10am

Wed Jan 22, 9:00am

Wed Jan 22, 8:10am

Wed Jan 22, 8:00am

Wed Jan 22, 7:10am

Wed Jan 22, 7:00am

Wed Jan 22, 6:10am

Wed Jan 22, 6:00am

Wed Jan 22, 5:10am

Wed Jan 22, 5:00am

Wed Jan 22, 4:10am

Wed Jan 22, 4:00am

Wed Jan 22, 3:10am

Wed Jan 22, 3:01am

Wed Jan 22, 2:10am

Wed Jan 22, 2:00am

Wed Jan 22, 1:10am

Wed Jan 22, 1:00am

Wed Jan 22, 12:10am

Wed Jan 22, 12:00am

Tue Jan 21, 11:10pm

Tue Jan 21, 11:00pm

Tue Jan 21, 10:10pm

Tue Jan 21, 10:00pm

Tue Jan 21, 9:10pm

Tue Jan 21, 9:01pm

Tue Jan 21, 8:10pm

Tue Jan 21, 8:00pm

Tue Jan 21, 7:10pm

Tue Jan 21, 7:00pm

Tue Jan 21, 6:10pm

Tue Jan 21, 6:01pm

Tue Jan 21, 5:10pm

Tue Jan 21, 5:00pm

Tue Jan 21, 4:10pm

Tue Jan 21, 4:00pm

Tue Jan 21, 3:10pm

Tue Jan 21, 3:01pm

Tue Jan 21, 2:10pm

Tue Jan 21, 2:00pm

Tue Jan 21, 1:10pm

Tue Jan 21, 1:00pm

Tue Jan 21, 12:10pm

Tue Jan 21, 12:00pm

Tue Jan 21, 11:10am

Tue Jan 21, 11:00am

Tue Jan 21, 10:10am

Tue Jan 21, 10:00am

Tue Jan 21, 9:10am

Tue Jan 21, 9:00am

Tue Jan 21, 8:10am

Tue Jan 21, 8:00am

Tue Jan 21, 7:10am

Tue Jan 21, 7:00am

Tue Jan 21, 6:10am

Tue Jan 21, 6:00am

Tue Jan 21, 5:10am

Tue Jan 21, 5:00am

Tue Jan 21, 4:10am

Tue Jan 21, 4:00am

Tue Jan 21, 3:10am

Tue Jan 21, 3:00am

Tue Jan 21, 2:10am

Tue Jan 21, 2:01am

Tue Jan 21, 1:10am

Tue Jan 21, 1:00am

Tue Jan 21, 12:10am

Tue Jan 21, 12:00am

Mon Jan 20, 11:10pm

Mon Jan 20, 11:00pm

Mon Jan 20, 10:10pm

Mon Jan 20, 10:00pm

Mon Jan 20, 9:10pm

Mon Jan 20, 9:00pm

Mon Jan 20, 8:10pm

Mon Jan 20, 8:00pm

Mon Jan 20, 7:10pm

Mon Jan 20, 7:00pm

Mon Jan 20, 6:10pm

Mon Jan 20, 6:00pm

Mon Jan 20, 5:10pm

Mon Jan 20, 5:00pm

Mon Jan 20, 4:10pm

Mon Jan 20, 4:01pm

Mon Jan 20, 3:10pm

Mon Jan 20, 3:00pm

Mon Jan 20, 2:10pm

Mon Jan 20, 2:00pm

Mon Jan 20, 1:10pm

Mon Jan 20, 1:00pm

Mon Jan 20, 12:10pm

Mon Jan 20, 12:00pm

Mon Jan 20, 11:10am

Mon Jan 20, 11:00am

Meta data:

ID: 6a640af6-1c9c-4f75-a9e7-4ecbf0f1e630
Link: https://api.weather.gov/products/6a640af6-1c9c-4f75-a9e7-4ecbf0f1e630